Home   Weather   Modena   Past weeks

Flag for Italy Past Weather in Modena, Italy — Yesterday and Last 2 Weeks

Now
54 °F

Sunny.


Feels Like: 50 °F
Forecast: 35 / 54 °F
Wind: 10 mph from East

Location: Bologna / Borgo Panigale

Current Time: Feb 26, 2017 at 5:55:32 pm

Latest Report: Feb 26, 2017 at 5:20 pm


Visibility: 10 mi

Pressure: 30.07 "Hg

Humidity: 44%

Dew Point: 32 °F

Location of ModenaLocation

Past Weather in Modena — Graph

°F

Modena Temperature Yesterday

Maximum temperature yesterday: 55 °F (at 1:20 pm)
Minimum temperature yesterday: 37 °F (at 11:20 pm)
Average temperature yesterday: 46 °F

High & Low Weather Summary for the Past Weeks

 TemperatureHumidityPressure
High61 °F (Feb 16, 1:50 pm)100% (Feb 14, 2:20 am)30.60 "Hg (Feb 14, 2:20 am)
Low30 °F (Feb 19, 4:50 am)33% (Feb 25, 2:20 pm)29.71 "Hg (Feb 24, 1:20 pm)
Average45 °F81%30.23 "Hg
* Reported Feb 11 4:20 pm — Feb 26 4:20 pm, Modena, Weather by CustomWeather, © 2017

Note: Actual official high and low records may vary slightly from our data, if they occured in-between our weather recording intervals... More about our weather records

Advertising

Modena Weather History for the Previous 24 Hours

Scroll right to see more
 ConditionsComfort  
Time TempWeatherWind HumidityBarometerVisibility
4:20 pm
Sun, Feb 26
55 °FPassing clouds.9 mph44%30.07 "HgN/A
3:50 pm57 °FPassing clouds.8 mph41%30.07 "HgN/A
3:20 pm57 °FPassing clouds.8 mph39%30.07 "HgN/A
2:50 pm55 °FPassing clouds.7 mph41%30.07 "HgN/A
2:20 pm57 °FPassing clouds.5 mph41%30.09 "HgN/A
1:50 pm55 °FPassing clouds.5 mph44%30.09 "HgN/A
1:20 pm55 °FPassing clouds.5 mph41%30.09 "HgN/A
12:50 pm54 °FSunny.5 mph44%30.12 "Hg10 mi
12:20 pm55 °FSunny.2 mph41%30.12 "Hg10 mi
11:50 am55 °FSunny.2 mph36%30.15 "Hg10 mi
11:20 am55 °FSunny.1 mph38%30.15 "Hg10 mi
10:50 am54 °FPassing clouds.3 mph41%30.15 "HgN/A
10:20 am50 °FPassing clouds.5 mph50%30.15 "HgN/A
9:50 am48 °FSunny.9 mph54%30.15 "Hg10 mi
9:20 am45 °FSunny.8 mph61%30.15 "Hg10 mi
8:50 am41 °FSunny.8 mph66%30.18 "Hg10 mi
8:20 am39 °FSunny.9 mph70%30.18 "Hg10 mi
7:50 am37 °FSunny.9 mph70%30.18 "Hg10 mi
7:20 am36 °FSunny.9 mph75%30.18 "Hg10 mi
6:50 am36 °FClear.9 mph75%30.18 "Hg10 mi
6:20 am36 °FClear.8 mph75%30.18 "Hg10 mi
5:50 am34 °FClear.7 mph81%30.18 "Hg10 mi
5:20 am36 °FClear.8 mph75%30.18 "Hg10 mi
4:50 am34 °FClear.8 mph81%30.18 "Hg10 mi
4:20 am34 °FClear.6 mph81%30.18 "Hg10 mi
3:50 am34 °FPassing clouds.5 mph81%30.18 "HgN/A
3:20 am36 °FClear.9 mph75%30.18 "Hg10 mi
2:50 am36 °FClear.8 mph75%30.18 "Hg10 mi
2:20 am36 °FClear.3 mph75%30.21 "Hg10 mi
1:50 am36 °FClear.7 mph81%30.21 "Hg10 mi
1:20 am36 °FClear.7 mph81%30.21 "Hg10 mi
12:50 am36 °FClear.7 mph81%30.21 "Hg10 mi
12:20 am37 °FClear.7 mph75%30.21 "Hg10 mi
11:50 pm
Sat, Feb 25
37 °FClear.8 mph75%30.21 "Hg10 mi
11:20 pm37 °FClear.6 mph75%30.21 "Hg10 mi
10:50 pm39 °FClear.8 mph75%30.21 "Hg10 mi
10:20 pm39 °FClear.8 mph75%30.21 "Hg10 mi
9:50 pm39 °FClear.7 mph75%30.21 "Hg10 mi
9:20 pm39 °FClear.6 mph75%30.21 "Hg10 mi
8:50 pm41 °FClear.3 mph70%30.21 "Hg10 mi
8:20 pm41 °FClear.2 mph66%30.21 "Hg10 mi
7:50 pm41 °FClear.2 mph66%30.21 "Hg10 mi
7:20 pm45 °FClear.2 mph57%30.21 "Hg10 mi
6:50 pm45 °FClear.3 mph57%30.18 "Hg10 mi
6:20 pm46 °FClear.6 mph53%30.18 "Hg10 mi
5:50 pm50 °FSunny.5 mph43%30.18 "Hg10 mi
5:20 pm52 °FSunny.7 mph41%30.18 "Hg10 mi
Weather by CustomWeather, © 2017

See weather overviewHow to use our weather pages

LIVE ANNULAR SOLAR ECLIPSE – Watch the eclipse as it happens